Regional Weather Roundup
Issued by NWS

Home | Current Version | Previous Version | Text Only | Print | Product List | Glossary Off
Versions: 1 2 3 4 5 6 7 8 9 10 11 12 13 14 15 16 17 18 19 20 21 22 23 24 25 26 27 28 29 30 31 32 33 34 35 36 37 38 39 40 41 42 43 44 45 46 47 48 49 50

000
ASUS43 KTOP 300708
RWRKS

WEATHER ROUNDUP FOR KANSAS
NATIONAL WEATHER SERVICE GOODLAND KS
200 AM CDT THU OCT 30 2014

NOTE:  "FAIR" INDICATES FEW OR NO CLOUDS BELOW 12,000 FEET WITH NO
SIGNIFICANT WEATHER AND/OR OBSTRUCTIONS TO VISIBILITY.

KSZ001>006-013>018-027>032-041>047-300800-
NORTHWEST KANSAS

CITY           SKY/WX    TMP DP  RH WIND       PRES   REMARKS
GOODLAND       CLEAR     43  25  49 NW8       30.14R
HAYS           PTCLDY    52  37  58 W10       30.02R
HILL CITY      PTCLDY    56  28  34 NW17      30.01R
RUSSELL        PTCLDY    48  36  63 S9        29.98F
$$

KSZ061>065-074>080-084>089-300800-
SOUTHWEST KANSAS

CITY           SKY/WX    TMP DP  RH WIND       PRES   REMARKS
DODGE CITY     CLEAR     53  35  50 SW14      30.07S
ELKHART          N/A     51  37  58 SW6         N/A
GARDEN CITY    CLEAR     45  37  73 W9        30.08R
GREAT BEND     CLEAR     52  34  50 SW12      30.03S
LIBERAL        CLEAR     45  34  65 SW3       30.10S
PRATT          CLEAR     50  32  50 SW10      30.05F
$$

KSZ066>073-081>083-090>101-300800-
SOUTHEAST KANSAS

CITY           SKY/WX    TMP DP  RH WIND       PRES   REMARKS
CHANUTE        CLEAR     49  41  74 S9        30.08F
COFFEYVILLE    CLEAR     47  40  76 S5        30.10S
HUTCHINSON     CLEAR     50  34  54 S7        30.04F
MEDICINE LODGE   N/A     52  33  48 S3        30.06S
NEWTON         CLEAR     54  30  40 S12       30.06S
PARSONS        CLEAR     46  40  79 CALM      30.11S
WICHITA INTL   PTCLDY    51  34  52 S13       30.04F
WICHITA JABRA  CLEAR     50  35  56 S9        30.05F
WICHITA MCCONL CLEAR     52  34  51 S13       30.05F
WINFIELD       CLEAR     52  39  61 S9        30.09F
$$

KSZ007>012-019>026-033>040-048>060-102>105-300800-
NORTHEAST KANSAS

CITY           SKY/WX    TMP DP  RH WIND       PRES   REMARKS
CONCORDIA      MOCLDY    54  36  50 SW14      29.97F
EMPORIA        CLEAR     47  39  74 S10       30.05F
LAWRENCE       CLEAR     43  36  76 E6        30.06F
MANHATTAN      PTCLDY    46  37  71 CALM      30.01F
MARYSVILLE     PTCLDY    50  37  62 S7        29.99S
OLATHE IND     CLEAR     46  37  71 S9        30.07F
OLATHE EXE     CLEAR     46  36  68 S6        30.06F
SALINA         PTCLDY    50  36  58 S7        30.01F
TOPEKA BILLARD CLEAR     44  38  79 CALM      30.05F
TOPEKA FORBES  CLEAR     49  39  68 S7        30.04F
$$



USA.gov is the U.S. government's official web portal to all federal, state and local government web resources and services.